Content
SEND FEEDBACK

Daily
Averages
Monthly
Summary
Canada

QUEBEC CITY, QUEBEC


Home > North America > Canada > Quebec
Elevation: 239 feet     Latitude: 46 48N     Longitude: 071 23W

WEATHER
 
SELECT A DAY
Number of Records: 194,992;   Date Range: 6/30/96 - 9/29/14
 
SHARE

PRINT THIS DATA

[ ← Previous Day ]
WEATHER ALMANAC - AUGUST 1, 2013
[ Next Day → ]
[ °C ]   °F
Weather ElementAverageHighLow
Temperature69.8 °F82.4 °F (3:00 pm)59 °F (5:00 am)
Dewpoint57.2 °F66.2 °F (7:00 pm) (7:00 pm)
Humidity75.8 %97 % (2:00 am)38 % (5:00 pm)
Barometer28.02 in29.99 in (1:00 am) (7:00 pm)
Wind Speed6.3 mph17.3 mph (6:13 pm)
Wind Gust27.6 mph (6:13 pm)
Weather ElementAverage
Visibility22 mi
Wind DirectionESE (115.8 °)

Weather ElementTotal
Precipitation---
Cooling Degree Days5.7 (Base 65)
Growing Degree Days20.7 (Base 50)
Averaged from 32 records on August 1, 2013
WEATHER CONDITIONS BREAKOUT
WIND DIRECTION BREAKOUT
WEATHER BY HOUR - AUGUST 1, 2013
[ °C ]   °F
Local TimeTemperatureDewpointHumidityBarometerVisibilityWind DirectionWind SpeedGust SpeedPrecipitationEventsConditions
1:00 AM62.6 °F60.8 °F94 %29.99 in15.0 miCalmMostly Cloudy
2:00 AM61.0 °F60.0 °F97 %29.96 inCalm
2:00 AM64.4 °F60.8 °F88 %29.99 in15.0 miCalmMostly Cloudy
3:00 AM64.4 °F59.0 °F83 %29.98 in15.0 miNorth (350°)4.6 mphPartly Cloudy
4:00 AM62.6 °F59.0 °F88 %29.98 in15.0 miNNE (20°)4.6 mphPartly Cloudy
5:00 AM59.0 °F58.0 °F96 %29.96 inNNW (340°)2.3 mph
5:00 AM60.8 °F59.0 °F94 %29.97 in15.0 miNNE (20°)4.6 mphPartly Cloudy
6:00 AM60.8 °F59.0 °F94 %29.98 in15.0 miNorth (10°)2.3 mphMostly Cloudy
7:00 AM62.6 °F60.8 °F94 %29.98 in30.0 miNNE (20°)5.8 mphMostly Cloudy
8:00 AM65.0 °F61.0 °F81 %29.95 inENE (70°)4.6 mph
8:00 AM66.2 °F59.0 °F78 %29.98 in30.0 miENE (60°)8.1 mphMostly Cloudy
9:00 AM68.0 °F60.8 °F78 %29.97 in30.0 miNE (40°)6.9 mphMostly Cloudy
10:00 AM69.8 °F60.8 °F73 %29.95 in30.0 miNE (40°)9.2 mphMostly Cloudy
11:00 AM72.0 °F63.0 °F66 %29.90 inENE (70°)4.6 mph
11:00 AM73.4 °F62.6 °F69 %29.92 in30.0 miEast (80°)5.8 mphOvercast
12:00 PM77.0 °F62.6 °F61 %29.90 in30.0 miENE (60°)6.9 mphMostly Cloudy
1:00 PM78.8 °F62.6 °F57 %29.86 in30.0 miNorth (10°)4.6 mphMostly Cloudy
2:00 PM79.0 °F61.0 °F44 %29.81 inSSE (150°)10.4 mph
2:00 PM80.6 °F60.8 °F51 %29.83 in30.0 miSSE (150°)11.5 mphMostly Cloudy
3:00 PM82.4 °F60.8 °F48 %29.81 in30.0 miSE (140°)8.1 mphMostly Cloudy
4:00 PM80.6 °F57.2 °F45 %29.80 in30.0 miSSE (160°)12.7 mph19.6 mphMostly Cloudy
5:00 PM79.0 °F58.0 °F38 %29.76 inSSE (150°)10.4 mph
5:00 PM80.6 °F57.2 °F45 %29.78 in30.0 miSSE (150°)10.4 mphMostly Cloudy
6:00 PM78.8 °F59.0 °F51 %29.78 in30.0 miSSE (160°)6.9 mphMostly Cloudy
6:13 PM77.0 °F0.0 °F25.0 miWSW (250°)17.3 mph27.6 mphRainLight Rain Showers
7:00 PM68.0 °F66.2 °F94 %29.82 in25.0 miWSW (250°)11.5 mphRainLight Rain Showers
8:00 PM67.0 °F65.0 °F92 %29.81 inWest (260°)4.6 mph
8:00 PM66.2 °F64.4 °F94 %29.83 in10.0 miWSW (250°)8.1 mphRainLight Rain Showers
9:00 PM66.2 °F64.4 °F94 %29.82 in10.0 miENE (70°)3.5 mphRainLight Rain Showers
9:37 PM66.2 °F0.0 °F10.0 miEast (80°)2.3 mphOvercast
10:00 PM66.2 °F64.4 °F94 %29.81 in10.0 miEast (80°)4.6 mphOvercast
11:00 PM66.2 °F64.4 °F94 %29.80 in10.0 miEast (100°)4.6 mphOvercast
Hourly data recorded from CYQB, located miles away from Quebec City, Quebec







STORIES FROM OUR PARTNERS